Filippo Bernardi

Olheiro - Fiorentina
4 Abr 2027
Domingo
Processo

Personalidade

Adaptabilidade (4) Ambição (6) Controvérsia (10) Lealdade (15) Pressão (11) Profissionalismo (12) Espírito Esportivo (14) Temperamento (11)

Perfil

Estilo de Treinamento Democrático
Licença Continental A
Determinação 15
Gestão de Pessoas 9
Motivação 6
Disciplina 11
Satisfação no Trabalho
62%
Fadiga
0%
Função Olheiro
Salário 106.3K p/s
Contrato 14.03.2030

Desempenho

Comportamento Bom
Eficácia do Treinamento
38%
Desenvolvimento do Jogador
55%
Prevenção de Lesões
30%
Implementação Tática
40%

Eventos Recentes

Avaliou um jogador agora
Participou de uma reunião de recrutamento agora
Avaliou um jogador agora
Avaliou um jogador agora
Avaliou um jogador 7d atrás
Avaliou um jogador 7d atrás
Avaliou um jogador 7d atrás
Avaliou um jogador 7d atrás

Monitorando agora

126
Jogador Clube Status Habilidade Confiança Observado Última observação Último voto
Larson Palmeiras Ativo 117 / 112 40% 2 02.04.2027 -
Gladson Appiah Atlanta United FC Ativo 108 / 100 40% 1 02.04.2027 -
Avery Appiah Ajax Ativo 114 / 104 40% 1 01.04.2027 -
Yasin Özcan Aston Villa Ativo 113 / 118 40% 1 01.04.2027 -
Ivor Pandur Hull City Ativo 124 / 126 40% 1 31.03.2027 -
Oliver Dovin Coventry City Ativo 121 / 137 40% 1 31.03.2027 -
Adrián Alavés Ativo 124 / 116 40% 2 30.03.2027 -
Santiago Silva Boston River Ativo 132 / 111 40% 1 30.03.2027 -
Maduka Okoye Udinese Ativo 143 / 139 40% 3 29.03.2027 -
Dominik Kotarski FC Copenhagen Ativo 133 / 136 40% 2 29.03.2027 -
Nicolás Sumavil Platense Ativo 127 / 125 40% 3 27.03.2027 -
Jamie Cumming Oxford United Ativo 120 / 118 40% 1 26.03.2027 -
Sol Brynn Middlesbrough Ativo 135 / 118 40% 2 25.03.2027 -
Sebastián Meza Huracán Ativo 142 / 115 40% 1 25.03.2027 -
Lorenzo Palmisani Frosinone Ativo 123 / 129 40% 3 24.03.2027 -
Josué Kongolo Racing Genk Ativo 117 / 113 40% 2 24.03.2027 -
Mamour N'Diaye Sarpsborg 08 Ativo 107 / 116 40% 1 24.03.2027 -
Bahia Corinthians Ativo 115 / 106 40% 1 24.03.2027 -
Dylan Gorosito Boca Juniors Ativo 102 / 123 40% 2 22.03.2027 -
Edoardo Motta Lazio Ativo 132 / 119 40% 1 22.03.2027 -
Kai Andrews Coventry City Ativo 113 / 114 40% 1 22.03.2027 -
Gonçalo Oliveira Benfica Ativo 104 / 124 40% 1 19.03.2027 -
Sander Tangvik Hamburger SV Ativo 125 / 120 40% 2 18.03.2027 -
Santiago Daniele Chacarita Juniors Ativo 105 / 117 40% 1 17.03.2027 -
Enzo Cardozo Almirante Brown Ativo 94 / 105 40% 1 17.03.2027 -
Matthew Litherland Blackburn Rovers Ativo 101 / 109 40% 1 15.03.2027 -
Axel Tape Bayer Leverkusen Ativo 125 / 136 40% 1 15.03.2027 -
Ignacio Perruzzi San Lorenzo Ativo 133 / 142 40% 2 14.03.2027 -
Camilo Rey Domenech Boca Juniors Ativo 120 / 126 40% 1 14.03.2027 -
Valentin Atangana Juventus Ativo 135 / 134 40% 1 13.03.2027 -
Jaydee Canvot Crystal Palace Ativo 129 / 131 40% 2 12.03.2027 -
Tiago Freitas Benfica Ativo 116 / 115 40% 1 12.03.2027 -
Ignacio Campo Huracán Ativo 92 / 120 40% 1 11.03.2027 -
Alex Tóth Bournemouth Ativo 111 / 127 40% 1 11.03.2027 -
Miodrag Pivaš Newcastle United Ativo 113 / 113 40% 2 05.03.2027 -
Maeson King Oxford United Ativo 105 / 120 40% 1 04.03.2027 -
Augusto Bando Ascoli Ativo 94 / 103 40% 1 02.03.2027 -
Daniele Casiraghi Südtirol Relatório pronto 116 / 116 62% 1 07.01.2027 -
Manuel Roffo Cerro Porteno Ativo 144 / 115 40% 2 31.12.2026 -
Carlos Palacios Boca Juniors Ativo 115 / 139 40% 2 30.12.2026 -
Vitinha Genoa Ativo 124 / 138 40% 4 29.12.2026 -
Brayan Gil Baltika Ativo 110 / 131 40% 2 28.12.2026 -
Gonzalo Plata Dinamo Moscow Ativo 137 / 138 40% 3 27.12.2026 -
John Yeboah Venezia Ativo 120 / 118 40% 2 26.12.2026 -
Yegor Golenkov Rostov Ativo 130 / 108 40% 1 26.12.2026 -
Tomáš Suslov Hellas Verona Ativo 119 / 134 40% 1 25.12.2026 -
Alex Luna Instituto Ativo 115 / 142 40% 1 25.12.2026 -
Camillo Tavernelli Arezzo Ativo 107 / 119 40% 1 25.12.2026 -
Felipe Augusto Zenit Ativo 131 / 142 40% 1 23.12.2026 -
Mahamadou Doumbia Al-Ittihad Ativo 114 / 136 40% 1 23.12.2026 -
Nazar Voloshyn Dynamo Kyiv Ativo 118 / 130 40% 1 22.12.2026 -
Tadeo Allende Inter Miami CF Ativo 136 / 130 40% 4 19.12.2026 -
Brayan León Mamelodi Sundowns Ativo 117 / 121 40% 1 19.12.2026 -
Michele Cerofolini Bari Ativo 129 / 120 40% 1 18.12.2026 -
Pierce Charles Manchester City Ativo 130 / 129 40% 2 17.12.2026 -
Ruslan Neshcheret Dynamo Kyiv Ativo 109 / 127 40% 1 16.12.2026 -
Ignacio Russo Tigre Ativo 115 / 124 40% 1 15.12.2026 -
Matteo Rover Reggiana Ativo 114 / 121 40% 1 15.12.2026 -
Marquinhos Spartak Moscow Ativo 141 / 129 40% 2 14.12.2026 -
Santiago Pierotti Lecce Ativo 120 / 121 40% 2 13.12.2026 -
Christian Krasnodar Ativo 118 / 147 40% 2 13.12.2026 -
Konan N'Dri Lecce Ativo 122 / 135 40% 2 10.12.2026 -
Alexander Díaz Deportivo Riestra Perdido 106 / 104 40% 2 10.12.2026 -
Cristian Shpendi Cesena Ativo 137 / 139 40% 2 06.12.2026 -
Elia Caprile Cagliari Ativo 152 / 153 40% 1 06.12.2026 -
Domagoj Bradarić Hellas Verona Ativo 129 / 130 40% 2 03.12.2026 -
Jacques Ekomié Wrexham Ativo 120 / 125 40% 1 03.12.2026 -
Pablo Solari Spartak Moscow Ativo 115 / 121 40% 2 01.12.2026 -
Robert FC Copenhagen Ativo 141 / 120 40% 1 01.12.2026 -
Radek Vítek Middlesbrough Ativo 143 / 126 40% 1 29.11.2026 -
Patrick Schulte Columbus Crew Ativo 138 / 110 40% 1 29.11.2026 -
Yorbe Vertessen Red Bull Salzburg Ativo 132 / 129 40% 2 27.11.2026 -
Mandela Keita Parma Ativo 136 / 142 40% 1 27.11.2026 -
Iván Martín Racing Club Ativo 139 / 155 40% 2 23.11.2026 -
Matthew Hoppe SonderjyskE Ativo 110 / 106 40% 1 20.11.2026 -
Grégoire Coudert Burnley Ativo 123 / 122 40% 1 20.11.2026 -
Jean-Luc Morin Tours Ativo 145 / 146 40% 3 18.11.2026 -
Luciano Gondou CSKA Moscow Ativo 122 / 123 40% 1 18.11.2026 -
Jonathan Rowe Bologna Ativo 138 / 141 40% 1 17.11.2026 -
Exequiel Zeballos Boca Juniors Ativo 121 / 126 40% 1 17.11.2026 -
Elías Rafn Ólafsson FC Midtjylland Ativo 118 / 135 40% 1 15.11.2026 -
Jakub Stolarczyk Leicester City Ativo 134 / 136 40% 1 15.11.2026 -
Mads Hedenstad AGF Ativo 128 / 116 40% 1 12.11.2026 -
Niklas Steffen Thun Ativo 108 / 126 40% 1 12.11.2026 -
James Trafford Leeds United Ativo 147 / 139 40% 1 11.11.2026 -
Elis Bishesari IFK Goteborg Ativo 116 / 134 40% 1 11.11.2026 -
Adam Randell Bristol City Ativo 135 / 127 40% 1 08.11.2026 -
Håkon Evjen Bodo/Glimt Ativo 139 / 126 40% 1 07.11.2026 -
Josh Coburn Millwall Ativo 120 / 127 40% 2 05.11.2026 -
Musa Barrow Al-Khaleej Ativo 150 / 133 40% 4 04.11.2026 -
Kévin Denkey FC Cincinnati Ativo 130 / 136 40% 2 03.11.2026 -
Žan Vipotnik Swansea City Ativo 124 / 126 40% 1 03.11.2026 -
Santiago Giménez AC Milan Ativo 145 / 146 40% 2 01.11.2026 -
David Romero Parma Ativo 125 / 120 40% 1 01.11.2026 -
Favio Cabral Mitre Ativo 127 / 113 40% 1 31.10.2026 -
Imrân Louza Watford Ativo 130 / 125 40% 1 29.10.2026 -
Allahyar Sayyadmanesh Lech Ativo 114 / 111 40% 1 25.10.2026 -
Nicolás Fernández Mercau New York City Ativo 140 / 143 40% 1 20.10.2026 -
Adriano Bertaccini Anderlecht Ativo 122 / 119 40% 4 18.10.2026 -
Amin Sarr Hellas Verona Ativo 118 / 118 40% 1 18.10.2026 -
Lorenzo Colombo Genoa Ativo 144 / 132 40% 3 15.10.2026 -
Tiago Palacios Estudiantes Ativo 118 / 143 40% 2 14.10.2026 -
Michel Ndary Adopo Cagliari Ativo 145 / 135 40% 1 14.10.2026 -
Talles Magno New York City Ativo 136 / 140 40% 2 12.10.2026 -
Riqui Puig LA Galaxy Ativo 119 / 120 40% 1 12.10.2026 -
Cesar Corona Veracruz Ativo 139 / 145 40% 3 09.10.2026 -
Haissem Hassan Bloemfontein Celtic Ativo 119 / 141 40% 1 07.10.2026 -
Erik Lira Cruz Azul Ativo 121 / 147 40% 1 07.10.2026 -
Brooke Norton-Cuffy Genoa Ativo 127 / 136 40% 1 06.10.2026 -
Brandon Vázquez Austin FC Ativo 107 / 107 40% 1 06.10.2026 -
Martín Ojeda Orlando City Ativo 120 / 130 40% 1 01.10.2026 -
Florián Monzón Atlas Ativo 124 / 114 40% 1 28.09.2026 -
Michy Fellaini KV Oostende Ativo 127 / 137 40% 1 28.09.2026 -
Elias Achouri San Diego Football Club Ativo 135 / 119 40% 1 25.09.2026 -
Patson Daka Leicester City Ativo 114 / 121 40% 1 24.09.2026 -
Jefry Zapata Once Caldas Ativo 132 / 125 40% 1 24.09.2026 -
Jeong Sang-Bin St. Louis CITY SC Ativo 107 / 102 40% 1 20.09.2026 -
Diego Lainez Tigres Ativo 136 / 130 40% 1 18.09.2026 -
Luca Orellano Monterrey Ativo 142 / 124 40% 1 15.09.2026 -
Mohamed-Ali Cho Hull City Ativo 135 / 145 40% 1 13.09.2026 -
Efraín Álvarez Guadalajara Ativo 123 / 139 40% 1 13.09.2026 -
Manfred Ugalde Spartak Moscow Ativo 118 / 144 40% 1 11.09.2026 -
Shea Charles Southampton Ativo 131 / 126 40% 1 11.09.2026 -
Mattéo Tramoni Pisa Ativo 122 / 131 40% 1 11.09.2026 -
Facundo Batista Penarol Ativo 124 / 127 40% 1 07.09.2026 -
Ismaël Konaté Juventus Ativo 114 / 110 40% 1 02.08.2026 -